Location: Fort Worth, Tx
(32.7431°N, 97.3695°W)
Time: 08:02:39
(UTC-04:00)

Vanguard 2 - Pass Details

Date: 28 February 2024
Orbit: 552 x 2916 km, 32.9° (Epoch: 24 April)

Event Time Altitude Azimuth Distance (km) Brightness Sun altitude
Rises 21:22:46 0° 265° (W) 4,345 12.7 -25.4°
Reaches altitude 10° 21:25:12 10° 266° (W) 3,626 11.9 -25.9°
Maximum altitude 21:35:14 89° 350° (N) 2,094 9.5 -28.0°
Enters shadow 21:41:22 44° 87° (E) 3,072 10.0 -29.2°
